This is the latest recevied weather packets stored in our database for station/object DL3MEB-6. If no packets are shown the sender has not sent any weather packets the latest 10 day(s).
| Time | Temp. | Humidity | Pressure | Rain* | Wind** | Luminosity | Snow |
|---|---|---|---|---|---|---|---|
| 1777479196 | 21.67° C | 22% | 1019.7 hPa | 0 mm | - | - | - |
| 1777478288 | 21.67° C | 21% | 1019.7 hPa | 0 mm | - | - | - |
| 1777477383 | 22.22° C | 22% | 1019.7 hPa | 0 mm | - | - | - |
| 1777476478 | 21.67° C | 22% | 1019.6 hPa | 0 mm | - | - | - |
| 1777475573 | 21.67° C | 22% | 1019.6 hPa | 0 mm | - | - | - |
| 1777474671 | 22.22° C | 21% | 1019.6 hPa | 0 mm | - | - | - |
| 1777473766 | 21.11° C | 23% | 1019.6 hPa | 0 mm | - | - | - |
| 1777472863 | 21.11° C | 24% | 1019.6 hPa | 0 mm | - | - | - |
| 1777471956 | 21.11° C | 24% | 1019.6 hPa | 0 mm | - | - | - |
| 1777471048 | 21.11° C | 26% | 1019.7 hPa | 0 mm | - | - | - |
| 1777470143 | 20.56° C | 25% | 1019.7 hPa | 0 mm | - | - | - |
| 1777469240 | 21.11° C | 26% | 1019.7 hPa | 0 mm | - | - | - |
| 1777468326 | 20.56° C | 26% | 1019.7 hPa | 0 mm | - | - | - |
| 1777467423 | 20.56° C | 27% | 1019.7 hPa | 0 mm | - | - | - |
| 1777466519 | 20° C | 28% | 1019.8 hPa | 0 mm | - | - | - |
| 1777465611 | 20° C | 28% | 1019.8 hPa | 0 mm | - | - | - |
| 1777464704 | 19.44° C | 31% | 1019.8 hPa | 0 mm | - | - | - |
| 1777463792 | 18.89° C | 29% | 1019.8 hPa | 0 mm | - | - | - |
| 1777462877 | 18.33° C | 30% | 1020 hPa | 0 mm | - | - | - |
| 1777461977 | 18.33° C | 30% | 1020.3 hPa | 0 mm | - | - | - |
| 1777461070 | 17.78° C | 32% | 1020.2 hPa | 0 mm | - | - | - |
| 1777460163 | 17.22° C | 33% | 1020.3 hPa | 0 mm | - | - | - |
| 1777459257 | 16.67° C | 33% | 1020.4 hPa | 0 mm | - | - | - |
| 1777458345 | 16.11° C | 34% | 1020.5 hPa | 0 mm | - | - | - |
| 1777457434 | 15.56° C | 33% | 1020.4 hPa | 0 mm | - | - | - |
* Rain latest hour (hover to see other rain measurements)
** Current wind speed in m/s (hover to see current wind gust speed)